Regional Weather Roundup
Issued by NWS Sterling, VA

Home | Current Version | Previous Version | Text Only | Print | Product List | Glossary On
Versions: 1 2 3 4 5 6 7 8 9 10 11 12 13 14 15 16 17 18 19 20 21 22 23 24 25 26 27 28 29 30 31 32 33 34 35 36 37 38 39 40 41 42 43 44 45 46 47 48 49 50
000
ASUS41 KLWX 250411
RWRLWX

REGIONAL WEATHER ROUNDUP
NATIONAL WEATHER SERVICE BALTIMORE MD/WASHINGTON DC
1100 PM EST FRI NOV 24 2017

Note: "FAIR" indicates few or no clouds below 12,000 feet
with no significant weather and/or obstructions to visibility.
 TC=TEMPERATURE CELSIUS

 * =Non NWS site. Station does not report precipitation (e.g. rain,
    snow, etc.), thunder, or fog.

DCZ001-MDZ009-015-VAZ040>042-051-053>054-250500-
WASHINGTON METRO

CITY           SKY/WX    TMP DP  RH WIND       PRES   REMARKS
WASHINGTON NAT CLEAR     41  33  73 S8        29.95F
DULLES         CLEAR     35  30  82 CALM      29.94S
ANDREWS AFB    CLEAR     37  28  69 S5        29.93F
FT BELVOIR     CLEAR     32  28  88 CALM      29.95F
QUANTICO       CLEAR     39  34  82 SW5       29.96
COLLEGE PARK*  CLEAR     34  29  81 CALM      29.94F
LEESBURG*      CLEAR     43  32  65 S9        29.94S
MANASSAS*      CLEAR     31  28  89 CALM      29.95S
GAITHERSBURG*  CLEAR     40  29  64 S6        29.94S

$$

MDZ006>007-011-014-250500-
BALTIMORE METRO

CITY           SKY/WX    TMP DP  RH WIND       PRES   REMARKS
BWI AIRPORT    CLEAR     35  31  85 CALM      29.94F
MD SCIENCE CTR   N/A     43  34  70 MISG      29.95
MARTIN STATE   PTCLDY    36  34  93 CALM      29.97S
ANNAPOLIS      CLEAR     44  35  70 S5        29.95
FORT MEADE*    CLEAR     32  30  93 CALM      29.97F

$$

MDZ012-015-019>023-250500-
MARYLAND EASTERN SHORE

CITY           SKY/WX    TMP DP  RH WIND       PRES   REMARKS
OCEAN CITY     CLEAR     32  32 100 CALM      29.98S
SALISBURY      CLEAR     30  29  96 E3        29.97S
CAMBRIDGE*     CLEAR     34  32  93 CALM      29.97S
EASTON*        CLEAR     37  32  82 CALM      29.99F

$$

MDZ017>025-250500-
SOUTHERN MARYLAND

CITY           SKY/WX    TMP DP  RH WIND       PRES   REMARKS
PATUXENT RIVER CLEAR     42  37  82 S6        29.95
ST INIGOES     CLEAR     34  32  92 CALM      29.95
LEONARDTOWN*   CLEAR     41  36  81 CALM      29.97F

$$

MDZ003>005-250500-
NORTH CENTRAL MARYLAND

CITY           SKY/WX    TMP DP  RH WIND       PRES   REMARKS
FREDERICK*     CLEAR     32  28  86 CALM      29.96S
HAGERSTOWN APT CLEAR     43  28  55 SE5       29.89F
WESTMINSTER*   CLEAR     41  30  65 S5        29.92S

$$

MDZ501>502-250500-
WESTERN MARYLAND

CITY           SKY/WX    TMP DP  RH WIND       PRES   REMARKS
OAKLAND*       CLEAR     43  21  42 S9        29.81F
CUMBERLAND*    CLEAR     34  28  80 CALM      29.92S

$$

VAZ025>031-250500-
SHENANDOAH VALLEY

CITY           SKY/WX    TMP DP  RH WIND       PRES   REMARKS
WINCHESTER*    CLEAR     37  28  70 S5        29.89F
FRONT ROYAL*   CLEAR     37  27  65 SE5       29.88F
LURAY*         CLEAR     32  28  86 CALM      29.90S
NEW MARKET*    CLEAR     33  25  75 CALM      29.90S
STAUNTON*      CLEAR     32  24  72 CALM      29.93S
WAYNESBORO*    CLEAR     35  25  67 CALM      29.91F

$$

WVZ021-048>050-054>055-250500-
EASTERN WEST VIRGINIA PANHANDLE

CITY           SKY/WX    TMP DP  RH WIND       PRES   REMARKS
MARTINSBURG    CLEAR     32  25  75 CALM      29.88F
PETERSBURG*    CLEAR     27  24  88 CALM      29.88F

$$

VAZ036>039-050-250500-
CENTRAL FOOTHILLS

CITY           SKY/WX    TMP DP  RH WIND       PRES   REMARKS
CHARLOTTESVILL CLEAR     41  29  62 SW3       29.93F
CULPEPER*      CLEAR     31  27  83 CALM      29.95S
ORANGE*        CLEAR     32  28  86 CALM      29.93F
GORDONSVILLE*  CLEAR     31  29  92 CALM      29.94F
WARRENTON*     NOT AVBL

$$

VAZ055>057-250500-
NORTH AND CENTRAL PIEDMONT

CITY           SKY/WX    TMP DP  RH WIND       PRES   REMARKS
FREDERICKSBRG* CLEAR     35  31  87 CALM      29.94F
STAFFORD*      CLEAR     30  29  99 CALM      29.98F

$$

NCZ024-NYZ072-PAZ021-071-VAZ022-071-250500-
OTHER REGIONAL OBSERVATIONS

CITY           SKY/WX    TMP DP  RH WIND       PRES   REMARKS
NEW YORK CITY  CLEAR     45  29  53 VRB3      29.97S
PHILADELPHIA   CLEAR     41  32  70 S7        29.96F
PITTSBURGH     PTCLDY    42  20  41 S8        29.77F
ROANOKE        CLOUDY    36  28  73 CALM      29.96F
RICHMOND       CLEAR     33  29  85 SE3       29.96F
RALEIGH        PTCLDY    34  27  75 CALM      29.97S

$$

ANZ530>537-250500-
MARINE OBSERVATIONS

STATION/POSITION TIME  TEMP    WIND        PRES
                       AIR SEA DIR/SP/G
                 (UTC) (F)     (DEG/KT/KT) (MB)
THOMAS PT LIGHT  0400   48 51  200/ 15/ 16   N/A
BALT KEY BRIDGE  0348   44     200/  5/  6 1014.1F
COVE POINT       0348   46     200/ 11/ 13 1015.0F
LEWISETTA        0348   42 48  200/  4/  5 1014.5F
SOLOMONS ISLAND  0348          190/  6/  7   N/A
PINEY POINT      0348          200/  9/ 10   N/A

$$




USA.gov is the U.S. government's official web portal to all federal, state and local government web resources and services.